Flag for Norway Weather past 2 weeks in Florø, Norway

Now
59 °F

Broken clouds.


Feels Like: 57 °F
Forecast: 57 / 62 °F
Wind: 10 mph from South

Location: Floro

Current Time: Aug 5, 2015 at 9:35:50 AM

Latest Report: Aug 5, 2015 at 8:50 AM


Visibility: N/A

Pressure: 29.83 "Hg

Humidity: 77%

Dew point: 52 °F

Location of FlorøLocation

Historic Weather in Florø — Graph

°F

Florø temperature yesterday

Maximum temperature yesterday: 68 °F (at 11:20 AM)
Minimum temperature yesterday: 57 °F (at 1:20 PM)
Average temperature yesterday: 61 °F

Past Weeks' High & Low Weather Summary

 TemperatureHumidityPressure
High68 °F (Jul 26, 4:50 PM)100% (Jul 21, 9:50 AM)30.12 "Hg (Jul 21, 9:50 AM)
Low48 °F (Jul 24, 1:20 AM)43% (Jul 26, 4:50 PM)29.47 "Hg (Jul 26, 6:20 PM)
Average56 °F77%29.74 "Hg
* Reported Jul 21 8:20 AM — Aug 5 8:20 AM, Florø, Weather by CustomWeather, © 2015

Note: Actual official high and low records may vary slightly from our data, if they occured in-between our weather recording intervals... More about our weather records

Advertising

Florø weather history for previous 24 hours

 ConditionsComfort  
Time TempWeatherWind HumidityBarometerVisibility
8:20 AM
Wed, Aug 5
59 °FBroken clouds.13 mph77%29.80 "HgN/A
7:50 AM59 °FScattered showers. Broken clouds.12 mph77%29.80 "HgN/A
7:20 AM57 °FScattered showers. Broken clouds.13 mph82%29.80 "HgN/A
6:50 AM57 °FScattered showers. Broken clouds.14 mph82%29.80 "HgN/A
6:20 AM57 °FScattered showers. Broken clouds.16 mph82%29.80 "HgN/A
5:50 AM57 °FScattered showers. Partly cloudy.16 mph82%29.80 "HgN/A
5:20 AM57 °FOvercast.9 mph82%29.80 "HgN/A
4:50 AM57 °FOvercast.8 mph82%29.80 "HgN/A
4:20 AM57 °FOvercast.7 mph82%29.80 "HgN/A
3:50 AM59 °FMostly cloudy.8 mph77%29.80 "HgN/A
3:20 AM57 °FClear.7 mph88%29.80 "HgN/A
2:50 AM57 °FClear.9 mph88%29.80 "HgN/A
2:20 AM57 °FCool.13 mph94%29.77 "HgN/A
1:50 AM57 °FCool.9 mph100%29.77 "HgN/A
1:20 AM57 °FClear.12 mph94%29.77 "HgN/A
12:20 AM57 °FPartly cloudy.5 mph100%29.77 "HgN/A
11:50 PM
Tue, Aug 4
57 °FPartly cloudy.12 mph100%29.77 "HgN/A
11:20 PM57 °FLight rain. Partly cloudy.9 mph94%29.77 "HgN/A
10:50 PM57 °FLight rain. Broken clouds.12 mph94%29.77 "Hg3 mi
10:20 PM57 °FSprinkles. Broken clouds.9 mph94%29.77 "Hg6 mi
9:50 PM57 °FPassing clouds.5 mph94%29.77 "HgN/A
9:20 PM57 °FBroken clouds.10 mph94%29.77 "HgN/A
8:50 PM57 °FSprinkles. Broken clouds.14 mph94%29.77 "Hg4 mi
8:20 PM59 °FSprinkles. Broken clouds.8 mph94%29.77 "HgN/A
7:50 PM59 °FSprinkles. Broken clouds.5 mph88%29.77 "Hg4 mi
7:20 PM59 °FSprinkles. Broken clouds.7 mph88%29.77 "HgN/A
6:50 PM61 °FScattered showers. Broken clouds.3 mph88%29.77 "HgN/A
6:20 PM61 °FScattered showers. Broken clouds.1 mph88%29.77 "HgN/A
5:50 PM59 °FScattered showers. Broken clouds.5 mph88%29.77 "HgN/A
5:20 PM59 °FSprinkles. Broken clouds.7 mph94%29.77 "HgN/A
4:50 PM59 °FScattered showers. Broken clouds.7 mph88%29.77 "HgN/A
4:20 PM57 °FScattered showers. Partly sunny.10 mph94%29.77 "HgN/A
3:50 PM57 °FSprinkles. Broken clouds.10 mph94%29.77 "HgN/A
3:20 PM57 °FSprinkles. Broken clouds.13 mph94%29.77 "HgN/A
2:50 PM61 °FSprinkles. Broken clouds.20 mph77%29.77 "HgN/A
2:20 PM63 °FScattered showers. Partly sunny.10 mph77%29.77 "HgN/A
1:50 PM61 °FScattered showers. Partly sunny.10 mph83%29.77 "HgN/A
1:20 PM57 °FSprinkles. Partly sunny.10 mph82%29.80 "Hg5 mi
12:50 PM61 °FSprinkles. Partly sunny.13 mph77%29.77 "HgN/A
12:20 PM63 °FSprinkles. Partly sunny.20 mph68%29.77 "HgN/A
11:50 AM66 °FScattered showers. Broken clouds.16 mph56%29.77 "HgN/A
11:20 AM68 °FBroken clouds.13 mph53%29.77 "HgN/A
10:50 AM64 °FBroken clouds.13 mph60%29.77 "HgN/A
10:20 AM64 °FPartly sunny.10 mph60%29.77 "HgN/A
9:50 AM64 °FPartly sunny.16 mph56%29.77 "HgN/A
9:20 AM64 °FLight rain. Broken clouds.18 mph56%29.77 "HgN/A
Weather by CustomWeather, © 2015

See weather overviewHow to use our weather pages